Year,Month,Day,Hour,Minute,Value (Times are PST for temperature in C)
2015,06,29,00,00,17.10
2015,06,29,00,01,17.10
2015,06,29,00,02,17.10
2015,06,29,00,03,17.10
2015,06,29,00,04,17.10
2015,06,29,00,05,17.10
2015,06,29,00,06,17.10
2015,06,29,00,07,17.10
2015,06,29,00,08,17.20
2015,06,29,00,09,17.20
2015,06,29,00,10,17.20
2015,06,29,00,11,17.20
2015,06,29,00,12,17.20
2015,06,29,00,13,17.20
2015,06,29,00,14,17.30
2015,06,29,00,15,17.30
2015,06,29,00,16,17.40
2015,06,29,00,17,17.50
2015,06,29,00,18,17.50
2015,06,29,00,19,17.50
2015,06,29,00,20,17.50
2015,06,29,00,21,17.60
2015,06,29,00,22,17.60
2015,06,29,00,23,17.60
2015,06,29,00,24,17.60
2015,06,29,00,25,17.60
2015,06,29,00,26,17.60
2015,06,29,00,27,17.60
2015,06,29,00,28,17.60
2015,06,29,00,29,17.60
2015,06,29,00,30,17.60
2015,06,29,00,31,17.60
2015,06,29,00,32,17.60
2015,06,29,00,33,17.60
2015,06,29,00,34,17.70
2015,06,29,00,35,17.70
2015,06,29,00,36,17.70
2015,06,29,00,37,17.70
2015,06,29,00,38,17.60
2015,06,29,00,39,17.60
2015,06,29,00,40,17.50
2015,06,29,00,41,17.50
2015,06,29,00,42,17.40
2015,06,29,00,43,17.40
2015,06,29,00,44,17.40
2015,06,29,00,45,17.40
2015,06,29,00,46,17.30
2015,06,29,00,47,17.30
2015,06,29,00,48,17.30
2015,06,29,00,49,17.30
2015,06,29,00,50,17.40
2015,06,29,00,51,17.40
2015,06,29,00,52,17.40
2015,06,29,00,53,17.40
2015,06,29,00,54,17.40
2015,06,29,00,55,17.40
2015,06,29,00,56,17.40
2015,06,29,00,57,17.40
2015,06,29,00,58,17.40
2015,06,29,00,59,17.40
2015,06,29,01,00,17.40
2015,06,29,01,01,17.40
2015,06,29,01,02,17.40
2015,06,29,01,03,17.40
2015,06,29,01,04,17.40
2015,06,29,01,05,17.40
2015,06,29,01,06,17.40
2015,06,29,01,07,17.40
2015,06,29,01,08,17.40
2015,06,29,01,09,17.50
2015,06,29,01,10,17.50
2015,06,29,01,11,17.50
2015,06,29,01,12,17.50
2015,06,29,01,13,17.50
2015,06,29,01,14,17.50
2015,06,29,01,15,17.50
2015,06,29,01,16,17.60
2015,06,29,01,17,17.60
2015,06,29,01,18,17.60
2015,06,29,01,19,17.60
2015,06,29,01,20,17.60
2015,06,29,01,21,17.70
2015,06,29,01,22,17.70
2015,06,29,01,23,17.70
2015,06,29,01,24,17.70
2015,06,29,01,25,17.70
2015,06,29,01,26,17.70
2015,06,29,01,27,17.70
2015,06,29,01,28,17.70
2015,06,29,01,29,17.60
2015,06,29,01,30,17.60
2015,06,29,01,31,17.60
2015,06,29,01,32,17.60
2015,06,29,01,33,17.70
2015,06,29,01,34,17.70
2015,06,29,01,35,17.70
2015,06,29,01,36,17.70
2015,06,29,01,37,17.70
2015,06,29,01,38,17.70
2015,06,29,01,39,17.70
2015,06,29,01,40,17.60
2015,06,29,01,41,17.60
2015,06,29,01,42,17.60
2015,06,29,01,43,17.50
2015,06,29,01,44,17.50
2015,06,29,01,45,17.40
2015,06,29,01,46,17.30
2015,06,29,01,47,17.30
2015,06,29,01,48,17.20
2015,06,29,01,49,17.10
2015,06,29,01,50,17.00
2015,06,29,01,51,17.00
2015,06,29,01,52,16.90
2015,06,29,01,53,16.80
2015,06,29,01,54,16.70
2015,06,29,01,55,16.70
2015,06,29,01,56,16.60
2015,06,29,01,57,16.60
2015,06,29,01,58,16.60
2015,06,29,01,59,16.50
2015,06,29,02,00,16.50
2015,06,29,02,01,16.40
2015,06,29,02,02,16.40
2015,06,29,02,03,16.30
2015,06,29,02,04,16.30
2015,06,29,02,05,16.30
2015,06,29,02,06,16.30
2015,06,29,02,07,16.30
2015,06,29,02,08,16.20
2015,06,29,02,09,16.20
2015,06,29,02,10,16.20
2015,06,29,02,11,16.10
2015,06,29,02,12,16.10
2015,06,29,02,13,16.10
2015,06,29,02,14,16.10
2015,06,29,02,15,16.00
2015,06,29,02,16,16.00
2015,06,29,02,17,15.90
2015,06,29,02,18,15.90
2015,06,29,02,19,15.80
2015,06,29,02,20,15.80
2015,06,29,02,21,15.80
2015,06,29,02,22,15.80
2015,06,29,02,23,15.80
2015,06,29,02,24,15.80
2015,06,29,02,25,15.80
2015,06,29,02,26,15.80
2015,06,29,02,27,15.80
2015,06,29,02,28,15.80
2015,06,29,02,29,15.80
2015,06,29,02,30,15.70
2015,06,29,02,31,15.70
2015,06,29,02,32,15.70
2015,06,29,02,33,15.70
2015,06,29,02,34,15.70
2015,06,29,02,35,15.70
2015,06,29,02,36,15.70
2015,06,29,02,37,15.70
2015,06,29,02,38,15.70
2015,06,29,02,39,15.70
2015,06,29,02,40,15.70
2015,06,29,02,41,15.70
2015,06,29,02,42,15.70
2015,06,29,02,43,15.60
2015,06,29,02,44,15.60
2015,06,29,02,45,15.60
2015,06,29,02,46,15.60
2015,06,29,02,47,15.60
2015,06,29,02,48,15.60
2015,06,29,02,49,15.60
2015,06,29,02,50,15.60
2015,06,29,02,51,15.60
2015,06,29,02,52,15.60
2015,06,29,02,53,15.60
2015,06,29,02,54,15.60
2015,06,29,02,55,15.60
2015,06,29,02,56,15.60
2015,06,29,02,57,15.60
2015,06,29,02,58,15.60
2015,06,29,02,59,15.60
2015,06,29,03,00,15.60
2015,06,29,03,01,15.60
2015,06,29,03,02,15.60
2015,06,29,03,03,15.60
2015,06,29,03,04,15.60
2015,06,29,03,05,15.60
2015,06,29,03,06,15.60
2015,06,29,03,07,15.60
2015,06,29,03,08,15.60
2015,06,29,03,09,15.60
2015,06,29,03,10,15.60
2015,06,29,03,11,15.70
2015,06,29,03,12,15.70
2015,06,29,03,13,15.70
2015,06,29,03,14,15.70
2015,06,29,03,15,15.70
2015,06,29,03,16,15.80
2015,06,29,03,17,15.80
2015,06,29,03,18,15.70
2015,06,29,03,19,15.80
2015,06,29,03,20,15.80
2015,06,29,03,21,15.80
2015,06,29,03,22,15.80
2015,06,29,03,23,15.80
2015,06,29,03,24,15.80
2015,06,29,03,25,15.80
2015,06,29,03,26,15.80
2015,06,29,03,27,15.80
2015,06,29,03,28,15.80
2015,06,29,03,29,15.80
2015,06,29,03,30,15.80
2015,06,29,03,31,15.80
2015,06,29,03,32,15.80
2015,06,29,03,33,15.90
2015,06,29,03,34,15.90
2015,06,29,03,35,15.90
2015,06,29,03,36,16.00
2015,06,29,03,37,16.10
2015,06,29,03,38,16.10
2015,06,29,03,39,16.10
2015,06,29,03,40,16.10
2015,06,29,03,41,16.10
2015,06,29,03,42,16.00
2015,06,29,03,43,16.00
2015,06,29,03,44,16.00
2015,06,29,03,45,16.00
2015,06,29,03,46,16.00
2015,06,29,03,47,16.00
2015,06,29,03,48,16.00
2015,06,29,03,49,16.00
2015,06,29,03,50,16.00
2015,06,29,03,51,16.00
2015,06,29,03,52,16.00
2015,06,29,03,53,16.00
2015,06,29,03,54,16.00
2015,06,29,03,55,16.00
2015,06,29,03,56,16.00
2015,06,29,03,57,16.00
2015,06,29,03,58,16.00
2015,06,29,03,59,16.00
2015,06,29,04,00,16.00
2015,06,29,04,01,15.90
2015,06,29,04,02,15.90
2015,06,29,04,03,15.90
2015,06,29,04,04,15.90
2015,06,29,04,05,15.90
2015,06,29,04,06,15.90
2015,06,29,04,07,15.90
2015,06,29,04,08,15.90
2015,06,29,04,09,15.90
2015,06,29,04,10,15.80
2015,06,29,04,11,15.80
2015,06,29,04,12,15.80
2015,06,29,04,13,15.80
2015,06,29,04,14,15.80
2015,06,29,04,15,15.80
2015,06,29,04,16,15.80
2015,06,29,04,17,15.80
2015,06,29,04,18,15.70
2015,06,29,04,19,15.70
2015,06,29,04,20,15.70
2015,06,29,04,21,15.70
2015,06,29,04,22,15.70
2015,06,29,04,23,15.70
2015,06,29,04,24,15.70
2015,06,29,04,25,15.70
2015,06,29,04,26,15.70
2015,06,29,04,27,15.70
2015,06,29,04,28,15.70
2015,06,29,04,29,15.70
2015,06,29,04,30,15.60
2015,06,29,04,31,15.60
2015,06,29,04,32,15.60
2015,06,29,04,33,15.50
2015,06,29,04,34,15.50
2015,06,29,04,35,15.40
2015,06,29,04,36,15.40
2015,06,29,04,37,15.40
2015,06,29,04,38,15.30
2015,06,29,04,39,15.30
2015,06,29,04,40,15.30
2015,06,29,04,41,15.30
2015,06,29,04,42,15.30
2015,06,29,04,43,15.20
2015,06,29,04,44,15.20
2015,06,29,04,45,15.20
2015,06,29,04,46,15.20
2015,06,29,04,47,15.10
2015,06,29,04,48,15.10
2015,06,29,04,49,15.10
2015,06,29,04,50,15.10
2015,06,29,04,51,15.10
2015,06,29,04,52,15.10
2015,06,29,04,53,15.10
2015,06,29,04,54,15.10
2015,06,29,04,55,15.10
2015,06,29,04,56,15.10
2015,06,29,04,57,15.10
2015,06,29,04,58,15.10
2015,06,29,04,59,15.10
2015,06,29,05,00,15.10
2015,06,29,05,01,15.20
2015,06,29,05,02,15.20
2015,06,29,05,03,15.10
2015,06,29,05,04,15.10
2015,06,29,05,05,15.10
2015,06,29,05,06,15.10
2015,06,29,05,07,15.10
2015,06,29,05,08,15.00
2015,06,29,05,09,15.00
2015,06,29,05,10,15.00
2015,06,29,05,11,15.00
2015,06,29,05,12,15.00
2015,06,29,05,13,15.00
2015,06,29,05,14,15.00
2015,06,29,05,15,15.00
2015,06,29,05,16,15.00
2015,06,29,05,17,15.00
2015,06,29,05,18,15.00
2015,06,29,05,19,15.00
2015,06,29,05,20,15.00
2015,06,29,05,21,14.90
2015,06,29,05,22,14.90
2015,06,29,05,23,14.90
2015,06,29,05,24,15.00
2015,06,29,05,25,15.00
2015,06,29,05,26,15.00
2015,06,29,05,27,15.00
2015,06,29,05,28,15.00
2015,06,29,05,29,15.10
2015,06,29,05,30,15.10
2015,06,29,05,31,15.10
2015,06,29,05,32,15.10
2015,06,29,05,33,15.10
2015,06,29,05,34,15.10
2015,06,29,05,35,15.10
2015,06,29,05,36,15.10
2015,06,29,05,37,15.10
2015,06,29,05,38,15.10
2015,06,29,05,39,15.10
2015,06,29,05,40,15.10
2015,06,29,05,41,15.10
2015,06,29,05,42,15.10
2015,06,29,05,43,15.10
2015,06,29,05,44,15.10
2015,06,29,05,45,15.10
2015,06,29,05,46,15.10
2015,06,29,05,47,15.10
2015,06,29,05,48,15.10
2015,06,29,05,49,15.10
2015,06,29,05,50,15.00
2015,06,29,05,51,15.00
2015,06,29,05,52,15.00
2015,06,29,05,53,15.00
2015,06,29,05,54,15.00
2015,06,29,05,55,14.90
2015,06,29,05,56,14.90
2015,06,29,05,57,14.90
2015,06,29,05,58,14.90
2015,06,29,05,59,14.80
2015,06,29,06,00,14.80
2015,06,29,06,01,14.80
2015,06,29,06,02,14.70
2015,06,29,06,03,14.70
2015,06,29,06,04,14.70
2015,06,29,06,05,14.70
2015,06,29,06,06,14.70
2015,06,29,06,07,14.70
2015,06,29,06,08,14.70
2015,06,29,06,09,14.70
2015,06,29,06,10,14.70
2015,06,29,06,11,14.70
2015,06,29,06,12,14.70
2015,06,29,06,13,14.70
2015,06,29,06,14,14.70
2015,06,29,06,15,14.70
2015,06,29,06,16,14.70
2015,06,29,06,17,14.70
2015,06,29,06,18,14.70
2015,06,29,06,19,14.70
2015,06,29,06,20,14.80
2015,06,29,06,21,14.80
2015,06,29,06,22,14.80
2015,06,29,06,23,14.80
2015,06,29,06,24,14.80
2015,06,29,06,25,14.80
2015,06,29,06,26,14.90
2015,06,29,06,27,14.90
2015,06,29,06,28,14.90
2015,06,29,06,29,14.90
2015,06,29,06,30,14.90
2015,06,29,06,31,14.90
2015,06,29,06,32,15.00
2015,06,29,06,33,15.00
2015,06,29,06,34,15.00
2015,06,29,06,35,15.10
2015,06,29,06,36,15.10
2015,06,29,06,37,15.10
2015,06,29,06,38,15.20
2015,06,29,06,39,15.20
2015,06,29,06,40,15.30
2015,06,29,06,41,15.30
2015,06,29,06,42,15.30
2015,06,29,06,43,15.40
2015,06,29,06,44,15.50
2015,06,29,06,45,15.60
2015,06,29,06,46,15.60
2015,06,29,06,47,15.70
2015,06,29,06,48,15.80
2015,06,29,06,49,15.80
2015,06,29,06,50,15.90
2015,06,29,06,51,15.90
2015,06,29,06,52,16.00
2015,06,29,06,53,16.00
2015,06,29,06,54,16.10
2015,06,29,06,55,16.10
2015,06,29,06,56,16.10
2015,06,29,06,57,16.20
2015,06,29,06,58,16.20
2015,06,29,06,59,16.20
2015,06,29,07,00,16.30
2015,06,29,07,01,16.30
2015,06,29,07,02,16.30
2015,06,29,07,03,16.40
2015,06,29,07,04,16.40
2015,06,29,07,05,16.40
2015,06,29,07,06,16.40
2015,06,29,07,07,16.50
2015,06,29,07,08,16.50
2015,06,29,07,09,16.60
2015,06,29,07,10,16.60
2015,06,29,07,11,16.60
2015,06,29,07,12,16.70
2015,06,29,07,13,16.80
2015,06,29,07,14,16.80
2015,06,29,07,15,16.90
2015,06,29,07,16,16.90
2015,06,29,07,17,17.00
2015,06,29,07,18,17.00
2015,06,29,07,19,17.10
2015,06,29,07,20,17.10
2015,06,29,07,21,17.20
2015,06,29,07,22,17.20
2015,06,29,07,23,17.20
2015,06,29,07,24,17.30
2015,06,29,07,25,17.30
2015,06,29,07,26,17.30
2015,06,29,07,27,17.30
2015,06,29,07,28,17.40
2015,06,29,07,29,17.40
2015,06,29,07,30,17.40
2015,06,29,07,31,17.40
2015,06,29,07,32,17.40
2015,06,29,07,33,17.50
2015,06,29,07,34,17.50
2015,06,29,07,35,17.50
2015,06,29,07,36,17.60
2015,06,29,07,37,17.60
2015,06,29,07,38,17.70
2015,06,29,07,39,17.70
2015,06,29,07,40,17.70
2015,06,29,07,41,17.80
2015,06,29,07,42,17.80
2015,06,29,07,43,17.90
2015,06,29,07,44,18.00
2015,06,29,07,45,18.10
2015,06,29,07,46,18.20
2015,06,29,07,47,18.20
2015,06,29,07,48,18.30
2015,06,29,07,49,18.40
2015,06,29,07,50,18.40
2015,06,29,07,51,18.50
2015,06,29,07,52,18.60
2015,06,29,07,53,18.70
2015,06,29,07,54,18.70
2015,06,29,07,55,18.80
2015,06,29,07,56,18.80
2015,06,29,07,57,18.90
2015,06,29,07,58,18.90
2015,06,29,07,59,18.90
2015,06,29,08,00,18.90
2015,06,29,08,01,18.90
2015,06,29,08,02,19.00
2015,06,29,08,03,19.00
2015,06,29,08,04,19.10
2015,06,29,08,05,19.10
2015,06,29,08,06,19.20
2015,06,29,08,07,19.20
2015,06,29,08,08,19.30
2015,06,29,08,09,19.30
2015,06,29,08,10,19.40
2015,06,29,08,11,19.40
2015,06,29,08,12,19.40
2015,06,29,08,13,19.50
2015,06,29,08,14,19.50
2015,06,29,08,15,19.50
2015,06,29,08,16,19.50
2015,06,29,08,17,19.50
2015,06,29,08,18,19.50
2015,06,29,08,19,19.50
2015,06,29,08,20,19.60
2015,06,29,08,21,19.60
2015,06,29,08,22,19.60
2015,06,29,08,23,19.60
2015,06,29,08,24,19.60
2015,06,29,08,25,19.60
2015,06,29,08,26,19.60
2015,06,29,08,27,19.60
2015,06,29,08,28,19.60
2015,06,29,08,29,19.60
2015,06,29,08,30,19.60
2015,06,29,08,31,19.60
2015,06,29,08,32,19.60
2015,06,29,08,33,19.60
2015,06,29,08,34,19.60
2015,06,29,08,35,19.50
2015,06,29,08,36,19.50
2015,06,29,08,37,19.40
2015,06,29,08,38,19.30
2015,06,29,08,39,19.30
2015,06,29,08,40,19.20
2015,06,29,08,41,19.20
2015,06,29,08,42,19.10
2015,06,29,08,43,19.10
2015,06,29,08,44,19.10
2015,06,29,08,45,19.10
2015,06,29,08,46,19.10
2015,06,29,08,47,19.10
2015,06,29,08,48,19.10
2015,06,29,08,49,19.10
2015,06,29,08,50,19.10
2015,06,29,08,51,19.20
2015,06,29,08,52,19.20
2015,06,29,08,53,19.20
2015,06,29,08,54,19.20
2015,06,29,08,55,19.30
2015,06,29,08,56,19.30
2015,06,29,08,57,19.40
2015,06,29,08,58,19.50
2015,06,29,08,59,19.50
2015,06,29,09,00,19.60
2015,06,29,09,01,19.70
2015,06,29,09,02,19.70
2015,06,29,09,03,19.80
2015,06,29,09,04,19.90
2015,06,29,09,05,20.00
2015,06,29,09,06,20.10
2015,06,29,09,07,20.30
2015,06,29,09,08,20.40
2015,06,29,09,09,20.50
2015,06,29,09,10,20.70
2015,06,29,09,11,20.80
2015,06,29,09,12,21.00
2015,06,29,09,13,21.20
2015,06,29,09,14,21.30
2015,06,29,09,15,21.40
2015,06,29,09,16,21.50
2015,06,29,09,17,21.60
2015,06,29,09,18,21.60
2015,06,29,09,19,21.70
2015,06,29,09,20,21.80
2015,06,29,09,21,21.80
2015,06,29,09,22,21.80
2015,06,29,09,23,21.80
2015,06,29,09,24,21.80
2015,06,29,09,25,21.90
2015,06,29,09,26,21.90
2015,06,29,09,27,21.90
2015,06,29,09,28,22.00
2015,06,29,09,29,22.00
2015,06,29,09,30,22.00
2015,06,29,09,31,22.00
2015,06,29,09,32,22.00
2015,06,29,09,33,22.00
2015,06,29,09,34,22.00
2015,06,29,09,35,22.00
2015,06,29,09,36,22.00
2015,06,29,09,37,21.90
2015,06,29,09,38,21.90
2015,06,29,09,39,21.90
2015,06,29,09,40,21.80
2015,06,29,09,41,21.80
2015,06,29,09,42,21.80
2015,06,29,09,43,21.80
2015,06,29,09,44,21.80
2015,06,29,09,45,21.80
2015,06,29,09,46,21.80
2015,06,29,09,47,21.90
2015,06,29,09,48,21.90
2015,06,29,09,49,21.80
2015,06,29,09,50,21.80
2015,06,29,09,51,21.90
2015,06,29,09,52,21.90
2015,06,29,09,53,21.90
2015,06,29,09,54,21.90
2015,06,29,09,55,22.00
2015,06,29,09,56,22.00
2015,06,29,09,57,22.10
2015,06,29,09,58,22.10
2015,06,29,09,59,22.10
2015,06,29,10,00,22.10
2015,06,29,10,01,22.20
2015,06,29,10,02,22.20
2015,06,29,10,03,22.20
2015,06,29,10,04,22.20
2015,06,29,10,05,22.30
2015,06,29,10,06,22.30
2015,06,29,10,07,22.30
2015,06,29,10,08,22.30
2015,06,29,10,09,22.30
2015,06,29,10,10,22.30
2015,06,29,10,11,22.30
2015,06,29,10,12,22.30
2015,06,29,10,13,22.30
2015,06,29,10,14,22.30
2015,06,29,10,15,22.40
2015,06,29,10,16,22.40
2015,06,29,10,17,22.50
2015,06,29,10,18,22.60
2015,06,29,10,19,22.70
2015,06,29,10,20,22.70
2015,06,29,10,21,22.80
2015,06,29,10,22,22.90
2015,06,29,10,23,23.00
2015,06,29,10,24,23.10
2015,06,29,10,25,23.20
2015,06,29,10,26,23.30
2015,06,29,10,27,23.40
2015,06,29,10,28,23.50
2015,06,29,10,29,23.60
2015,06,29,10,30,23.60
2015,06,29,10,31,23.70
2015,06,29,10,32,23.80
2015,06,29,10,33,23.80
2015,06,29,10,34,23.80
2015,06,29,10,35,23.80
2015,06,29,10,36,23.80
2015,06,29,10,37,23.70
2015,06,29,10,38,23.70
2015,06,29,10,39,23.60
2015,06,29,10,40,23.60
2015,06,29,10,41,23.50
2015,06,29,10,42,23.50
2015,06,29,10,43,23.50
2015,06,29,10,44,23.60
2015,06,29,10,45,23.60
2015,06,29,10,46,23.60
2015,06,29,10,47,23.60
2015,06,29,10,48,23.70
2015,06,29,10,49,23.80
2015,06,29,10,50,23.80
2015,06,29,10,51,23.80
2015,06,29,10,52,23.80
2015,06,29,10,53,23.80
2015,06,29,10,54,23.80
2015,06,29,10,55,23.80
2015,06,29,10,56,23.70
2015,06,29,10,57,23.60
2015,06,29,10,58,23.50
2015,06,29,10,59,23.50
2015,06,29,11,00,23.40
2015,06,29,11,01,23.30
2015,06,29,11,02,23.20
2015,06,29,11,03,23.10
2015,06,29,11,04,23.10
2015,06,29,11,05,23.00
2015,06,29,11,06,22.90
2015,06,29,11,07,22.90
2015,06,29,11,08,22.80
2015,06,29,11,09,22.70
2015,06,29,11,10,22.70
2015,06,29,11,11,22.70
2015,06,29,11,12,22.70
2015,06,29,11,13,22.70
2015,06,29,11,14,22.70
2015,06,29,11,15,22.80
2015,06,29,11,16,22.80
2015,06,29,11,17,22.80
2015,06,29,11,18,22.80
2015,06,29,11,19,22.90
2015,06,29,11,20,23.00
2015,06,29,11,21,23.00
2015,06,29,11,22,23.10
2015,06,29,11,23,23.20
2015,06,29,11,24,23.20
2015,06,29,11,25,23.30
2015,06,29,11,26,23.40
2015,06,29,11,27,23.50
2015,06,29,11,28,23.50
2015,06,29,11,29,23.60
2015,06,29,11,30,23.60
2015,06,29,11,31,23.60
2015,06,29,11,32,23.70
2015,06,29,11,33,23.70
2015,06,29,11,34,23.80
2015,06,29,11,35,24.00
2015,06,29,11,36,24.10
2015,06,29,11,37,24.20
2015,06,29,11,38,24.40
2015,06,29,11,39,24.60
2015,06,29,11,40,24.80
2015,06,29,11,41,24.90
2015,06,29,11,42,25.10
2015,06,29,11,43,25.30
2015,06,29,11,44,25.50
2015,06,29,11,45,25.70
2015,06,29,11,46,25.90
2015,06,29,11,47,26.10
2015,06,29,11,48,26.20
2015,06,29,11,49,26.40
2015,06,29,11,50,26.50
2015,06,29,11,51,26.60
2015,06,29,11,52,26.70
2015,06,29,11,53,26.70
2015,06,29,11,54,26.70
2015,06,29,11,55,26.70
2015,06,29,11,56,26.70
2015,06,29,11,57,26.70
2015,06,29,11,58,26.70
2015,06,29,11,59,26.70
2015,06,29,12,00,26.70
2015,06,29,12,01,26.80
2015,06,29,12,02,26.80
2015,06,29,12,03,26.80
2015,06,29,12,04,26.90
2015,06,29,12,05,26.90
2015,06,29,12,06,26.90
2015,06,29,12,07,26.90
2015,06,29,12,08,26.90
2015,06,29,12,09,27.00
2015,06,29,12,10,27.00
2015,06,29,12,11,27.00
2015,06,29,12,12,26.90
2015,06,29,12,13,26.90
2015,06,29,12,14,26.90
2015,06,29,12,15,26.90
2015,06,29,12,16,26.90
2015,06,29,12,17,26.90
2015,06,29,12,18,26.90
2015,06,29,12,19,26.80
2015,06,29,12,20,26.70
2015,06,29,12,21,26.70
2015,06,29,12,22,26.60
2015,06,29,12,23,26.50
2015,06,29,12,24,26.40
2015,06,29,12,25,26.40
2015,06,29,12,26,26.40
2015,06,29,12,27,26.40
2015,06,29,12,28,26.40
2015,06,29,12,29,26.40
2015,06,29,12,30,26.30
2015,06,29,12,31,26.30
2015,06,29,12,32,26.10
2015,06,29,12,33,26.00
2015,06,29,12,34,26.00
2015,06,29,12,35,25.90
2015,06,29,12,36,25.90
2015,06,29,12,37,25.90
2015,06,29,12,38,25.90
2015,06,29,12,39,25.90
2015,06,29,12,40,25.90
2015,06,29,12,41,25.90
2015,06,29,12,42,25.90
2015,06,29,12,43,25.80
2015,06,29,12,44,25.80
2015,06,29,12,45,25.80
2015,06,29,12,46,25.80
2015,06,29,12,47,25.90
2015,06,29,12,48,25.90
2015,06,29,12,49,26.00
2015,06,29,12,50,26.00
2015,06,29,12,51,26.00
2015,06,29,12,52,26.00
2015,06,29,12,53,26.10
2015,06,29,12,54,26.10
2015,06,29,12,55,26.10
2015,06,29,12,56,26.10
2015,06,29,12,57,26.10
2015,06,29,12,58,26.00
2015,06,29,12,59,26.00
2015,06,29,13,00,25.90
2015,06,29,13,01,25.90
2015,06,29,13,02,25.80
2015,06,29,13,03,25.80
2015,06,29,13,04,25.70
2015,06,29,13,05,25.50
2015,06,29,13,06,25.50
2015,06,29,13,07,25.50
2015,06,29,13,08,25.50
2015,06,29,13,09,25.50
2015,06,29,13,10,25.40
2015,06,29,13,11,25.30
2015,06,29,13,12,25.30
2015,06,29,13,13,25.30
2015,06,29,13,14,25.40
2015,06,29,13,15,25.50
2015,06,29,13,16,25.60
2015,06,29,13,17,25.70
2015,06,29,13,18,25.70
2015,06,29,13,19,25.70
2015,06,29,13,20,25.70
2015,06,29,13,21,25.70
2015,06,29,13,22,25.70
2015,06,29,13,23,25.80
2015,06,29,13,24,25.80
2015,06,29,13,25,25.90
2015,06,29,13,26,25.90
2015,06,29,13,27,25.80
2015,06,29,13,28,25.80
2015,06,29,13,29,25.70
2015,06,29,13,30,25.60
2015,06,29,13,31,25.60
2015,06,29,13,32,25.60
2015,06,29,13,33,25.50
2015,06,29,13,34,25.50
2015,06,29,13,35,25.40
2015,06,29,13,36,25.40
2015,06,29,13,37,25.40
2015,06,29,13,38,25.40
2015,06,29,13,39,25.40
2015,06,29,13,40,25.40
2015,06,29,13,41,25.40
2015,06,29,13,42,25.40
2015,06,29,13,43,25.40
2015,06,29,13,44,25.50
2015,06,29,13,45,25.60
2015,06,29,13,46,25.70
2015,06,29,13,47,25.80
2015,06,29,13,48,25.90
2015,06,29,13,49,26.00
2015,06,29,13,50,26.10
2015,06,29,13,51,26.20
2015,06,29,13,52,26.20
2015,06,29,13,53,26.30
2015,06,29,13,54,26.30
2015,06,29,13,55,26.30
2015,06,29,13,56,26.40
2015,06,29,13,57,26.50
2015,06,29,13,58,26.60
2015,06,29,13,59,26.70
2015,06,29,14,00,26.80
2015,06,29,14,01,26.90
2015,06,29,14,02,27.00
2015,06,29,14,03,27.10
2015,06,29,14,04,27.20
2015,06,29,14,05,27.30
2015,06,29,14,06,27.30
2015,06,29,14,07,27.30
2015,06,29,14,08,27.30
2015,06,29,14,09,27.30
2015,06,29,14,10,27.30
2015,06,29,14,11,27.30
2015,06,29,14,12,27.30
2015,06,29,14,13,27.30
2015,06,29,14,14,27.30
2015,06,29,14,15,27.40
2015,06,29,14,16,27.30
2015,06,29,14,17,27.40
2015,06,29,14,18,27.50
2015,06,29,14,19,27.60
2015,06,29,14,20,27.60
2015,06,29,14,21,27.60
2015,06,29,14,22,27.70
2015,06,29,14,23,27.60
2015,06,29,14,24,27.60
2015,06,29,14,25,27.60
2015,06,29,14,26,27.60
2015,06,29,14,27,27.50
2015,06,29,14,28,27.50
2015,06,29,14,29,27.40
2015,06,29,14,30,27.40
2015,06,29,14,31,27.40
2015,06,29,14,32,27.50
2015,06,29,14,33,27.60
2015,06,29,14,34,27.60
2015,06,29,14,35,27.70
2015,06,29,14,36,27.70
2015,06,29,14,37,27.60
2015,06,29,14,38,27.60
2015,06,29,14,39,27.60
2015,06,29,14,40,27.50
2015,06,29,14,41,27.50
2015,06,29,14,42,27.60
2015,06,29,14,43,27.60
2015,06,29,14,44,27.50
2015,06,29,14,45,27.50
2015,06,29,14,46,27.50
2015,06,29,14,47,27.50
2015,06,29,14,48,27.60
2015,06,29,14,49,27.60
2015,06,29,14,50,27.60
2015,06,29,14,51,27.60
2015,06,29,14,52,27.60
2015,06,29,14,53,27.70
2015,06,29,14,54,27.80
2015,06,29,14,55,27.90
2015,06,29,14,56,27.90
2015,06,29,14,57,27.90
2015,06,29,14,58,27.80
2015,06,29,14,59,27.80
2015,06,29,15,00,27.70
2015,06,29,15,01,27.70
2015,06,29,15,02,27.70
2015,06,29,15,03,27.70
2015,06,29,15,04,27.60
2015,06,29,15,05,27.60
2015,06,29,15,06,27.50
2015,06,29,15,07,27.50
2015,06,29,15,08,27.50
2015,06,29,15,09,27.50
2015,06,29,15,10,27.60
2015,06,29,15,11,27.60
2015,06,29,15,12,27.60
2015,06,29,15,13,27.50
2015,06,29,15,14,27.50
2015,06,29,15,15,27.50
2015,06,29,15,16,27.40
2015,06,29,15,17,27.40
2015,06,29,15,18,27.40
2015,06,29,15,19,27.30
2015,06,29,15,20,27.30
2015,06,29,15,21,27.30
2015,06,29,15,22,27.20
2015,06,29,15,23,27.30
2015,06,29,15,24,27.30
2015,06,29,15,25,27.30
2015,06,29,15,26,27.40
2015,06,29,15,27,27.40
2015,06,29,15,28,27.50
2015,06,29,15,29,27.60
2015,06,29,15,30,27.70
2015,06,29,15,31,27.80
2015,06,29,15,32,27.80
2015,06,29,15,33,27.80
2015,06,29,15,34,27.80
2015,06,29,15,35,27.80
2015,06,29,15,36,27.80
2015,06,29,15,37,27.80
2015,06,29,15,38,27.80
2015,06,29,15,39,27.90
2015,06,29,15,40,27.90
2015,06,29,15,41,28.00
2015,06,29,15,42,27.90
2015,06,29,15,43,27.90
2015,06,29,15,44,27.80
2015,06,29,15,45,27.70
2015,06,29,15,46,27.60
2015,06,29,15,47,27.50
2015,06,29,15,48,27.40
2015,06,29,15,49,27.40
2015,06,29,15,50,27.40
2015,06,29,15,51,27.50
2015,06,29,15,52,27.50
2015,06,29,15,53,27.50
2015,06,29,15,54,27.50
2015,06,29,15,55,27.40
2015,06,29,15,56,27.40
2015,06,29,15,57,27.40
2015,06,29,15,58,27.50
2015,06,29,15,59,27.40
2015,06,29,16,00,27.40
2015,06,29,16,01,27.30
2015,06,29,16,02,27.20
2015,06,29,16,03,27.10
2015,06,29,16,04,27.10
2015,06,29,16,05,27.10
2015,06,29,16,06,27.10
2015,06,29,16,07,27.10
2015,06,29,16,08,27.20
2015,06,29,16,09,27.30
2015,06,29,16,10,27.40
2015,06,29,16,11,27.50
2015,06,29,16,12,27.60
2015,06,29,16,13,27.70
2015,06,29,16,14,27.80
2015,06,29,16,15,27.90
2015,06,29,16,16,27.90
2015,06,29,16,17,27.90
2015,06,29,16,18,27.90
2015,06,29,16,19,27.90
2015,06,29,16,20,27.90
2015,06,29,16,21,27.90
2015,06,29,16,22,27.90
2015,06,29,16,23,27.90
2015,06,29,16,24,27.80
2015,06,29,16,25,27.80
2015,06,29,16,26,27.80
2015,06,29,16,27,27.80
2015,06,29,16,28,27.80
2015,06,29,16,29,27.80
2015,06,29,16,30,27.70
2015,06,29,16,31,27.70
2015,06,29,16,32,27.70
2015,06,29,16,33,27.70
2015,06,29,16,34,27.80
2015,06,29,16,35,27.80
2015,06,29,16,36,27.90
2015,06,29,16,37,27.90
2015,06,29,16,38,27.80
2015,06,29,16,39,27.80
2015,06,29,16,40,27.70
2015,06,29,16,41,27.70
2015,06,29,16,42,27.60
2015,06,29,16,43,27.60
2015,06,29,16,44,27.70
2015,06,29,16,45,27.70
2015,06,29,16,46,27.70
2015,06,29,16,47,27.70
2015,06,29,16,48,27.70
2015,06,29,16,49,27.60
2015,06,29,16,50,27.50
2015,06,29,16,51,27.40
2015,06,29,16,52,27.30
2015,06,29,16,53,27.30
2015,06,29,16,54,27.30
2015,06,29,16,55,27.30
2015,06,29,16,56,27.30
2015,06,29,16,57,27.30
2015,06,29,16,58,27.30
2015,06,29,16,59,27.20
2015,06,29,17,00,27.20
2015,06,29,17,01,27.20
2015,06,29,17,02,27.20
2015,06,29,17,03,27.20
2015,06,29,17,04,27.20
2015,06,29,17,05,27.20
2015,06,29,17,06,27.20
2015,06,29,17,07,27.20
2015,06,29,17,08,27.20
2015,06,29,17,09,27.20
2015,06,29,17,10,27.20
2015,06,29,17,11,27.20
2015,06,29,17,12,27.10
2015,06,29,17,13,27.10
2015,06,29,17,14,27.00
2015,06,29,17,15,27.00
2015,06,29,17,16,27.00
2015,06,29,17,17,27.10
2015,06,29,17,18,27.10
2015,06,29,17,19,27.10